PROFILE

 METAR AND TAF INFORMATION
ADDS - METARS form results

(0622 UTC 21 September 2018)
http://aviationweather.gov/metar/data/
 
FMEE 210600Z AUTO 09017KT 9999 NCD 26/15 Q1021 BECMG 08017G27KT
FMEE 210530Z AUTO 10015KT 9999 NCD 25/15 Q1022 BECMG 08017G27KT
TAF FMEE 210500Z 2106/2212 08017G27KT 9999 FEW026 BECMG 2114/2116 14011KT BECMG 2203/2205 FEW013 BKN040 FM220700 09018KT 9999 FEW030 

 AIRPORT MAP

 RUNWAY INFORMATION
Runway 12 Runway length 10499 ft Runway width 148 ft
Runway elevation 38 ft Runway displaced threshold 398 ft Runway heading 102
Runway 30 Runway length 10499 ft Runway width 148 ft
Runway elevation 31 ft Runway displaced threshold 0 ft Runway heading 282
Runway 14 Runway length 8760 ft Runway width 148 ft
Runway elevation 27 ft Runway displaced threshold 328 ft Runway heading 116
Runway 32 Runway length 8760 ft Runway width 148 ft
Runway elevation 65 ft Runway displaced threshold 1165 ft Runway heading 296

 AIRPORT FREQUENCIES
Type A/G Name GILLOT RDO Frequency 347.6 MHZ
Type APP Name GILLOT APP Frequency 119.4 MHZ
Type ATIS Name ATIS Frequency 126.8 MHZ
Type GND Name GILLOT GND Frequency 121.9 MHZ
Type TWR Name GILLOT TWR Frequency 118.4 MHZ

 AIRPORT NEAR NAVIGATION AIDS
Type NDB Name St Denis Gillot Frequency 382 KHZ
Type VOR-DME Name St Denis Gillot Frequency 112900 KHZ